BEIDOU-3S IGSO-1S

Last updated on Sun Jun 21 2026 00:03:06 GMT+0000 (Coordinated Universal Time)

1 40549U 15019A 26170.99557403 -.00000176 00000+0 00000+0 0 9999 2 40549 49.1899 295.4270 0038863 191.0750 231.2891 1.00249609 41107
UTC large
Height (km)
Speed (km/s)
/
Latitude / Longitude
Inclination (degrees)
Orbital Period (minutes)
Azimuth
Elevation
Range (km)
Doppler Factor

Next 0 passes for location: London (51.5072 / 0.1276)

No passes found over London.
BEIDOU-3S IGSO-1S